Regional Weather Roundup
Issued by NWS Huntsville, AL

Home | Current Version | Previous Version | Text Only | Print | Product List | Glossary On
Versions: 1 2 3 4 5 6 7 8 9 10 11 12 13 14 15 16 17 18 19 20 21 22 23 24 25 26 27 28 29 30 31 32 33 34 35 36 37 38 39 40 41 42 43 44 45 46 47 48 49 50
779
ASUS44 KHUN 211310
RWRHUN

WEATHER ROUNDUP FOR THE TENNESSEE VALLEY
NATIONAL WEATHER SERVICE HUNTSVILLE AL
700 AM CST WED FEB 21 2018

ALZ001>004-211400-
NORTHWEST ALABAMA

CITY           SKY/WX    TMP DP  RH WIND       PRES   REMARKS
SHOALS AIRPORT MOCLDY    69  64  84 S10       30.27R
$$

ALZ005>007-016-211400-
NORTH CENTRAL ALABAMA

CITY           SKY/WX    TMP DP  RH WIND       PRES   REMARKS
DECATUR AP     CLOUDY    67  65  93 S8        30.30R
HUNTSVILLE AP  CLOUDY    69  66  90 S9        30.30R
MERIDIANVILLE  MOCLDY    68  64  88 S12       30.30S
REDSTONE ARSN  CLOUDY    68  65  91 SW9       30.29R
VINEMONT AP    PTSUNNY   66  64  93 S10       30.33R
$$

ALZ008>010-211400-
NORTHEAST ALABAMA

CITY           SKY/WX    TMP DP  RH WIND       PRES   REMARKS
FORT PAYNE     CLOUDY    66  63  88 MISG      30.35R
SCOTTSBORO AP  CLOUDY    70  66  88 VRB6G16   30.33R
$$

TNZ076-096-097-211400-
SOUTHEASTERN MIDDLE TENNESSEE

CITY           SKY/WX    TMP DP  RH WIND       PRES   REMARKS
TULLAHOMA      PTCLDY    66  63  88 S8        30.29S
WINCHESTER     MOCLDY    68  63  83 S10       30.32R
$$

...SURROUNDING SITES...

CITY           SKY/WX    TMP DP  RH WIND       PRES   REMARKS
ATLANTA        CLOUDY    67  67 100 S12       30.39R
ANNISTON       MOCLDY    67  63  87 CALM      30.34S
BIRMINGHAM     MOCLDY    68  65  90 S9G17     30.35R
CHATTANOOGA    CLOUDY    68  62  81 S8        30.35R
CORINTH        CLOUDY    70  64  83 S9G16     30.23R
DALTON         CLOUDY    64  64 100 S5        30.38R
GADSDEN        CLOUDY    68  67  96 VRB3      30.35R
GOLDEN TRNGL   CLOUDY    69  67  93 S9        30.28R
HALEYVILLE     LGT RAIN  67  67 100 S13G20    30.31R
JACKSON TN     RAIN      58  57  97 N8        30.28R FOG
MEMPHIS        RAIN      54  53  97 N12       30.28R FOG
NASHVILLE      MOCLDY    71  62  73 SW15G26   30.26R
OXFORD MS      CLOUDY    66  64  94 S6G13     30.23R
ROME           CLOUDY    64  64 100 CALM      30.36R
SAVANNAH       CLOUDY    70  66  88 S10G18    30.23R
SELMER         CLOUDY    68  64  88 VRB6G14   30.22R
TUPELO         CLOUDY    68  65  90 S8        30.24R
TUSCALOOSA     CLOUDY    70  69  97 S6        30.30R
$$

...GULF COAST WEATHER...

CITY           SKY/WX    TMP DP  RH WIND       PRES   REMARKS
GULFPORT       CLOUDY    71  71 100 SE13      30.24S FOG
PASCAGOULA     CLOUDY    72  68  87 SE10      30.27R
MOBILE         CLOUDY    72  69  90 SE13      30.29R FOG
GULF SHORES    CLOUDY    70  70 100 E10       30.29S FOG
PENSACOLA      CLOUDY    70  69  97 SE6       30.30  FOG
DESTIN         FAIR      72  66  81 E12       30.32R
PANAMA CITY    FAIR      68  66  94 E8        30.34R
APPALACHICOLA  FAIR      69  69 100 SE9       30.35R
$$





USA.gov is the U.S. government's official web portal to all federal, state and local government web resources and services.